Burlington, VT

12:59 AM EST on January 24, 2018 (GMT -0500)
Burlington International

Weather History for KBTV - May, 2014

Change the Weather History Date:

Tuesday, May 13, 2014

  Actual Average Record
Temperature  
Mean Temperature 60 °F 55 °F  
Max Temperature 68 °F 66 °F 84 °F (1985)
Min Temperature 51 °F 44 °F 30 °F (1940)
Degree Days  
Heating Degree Days 5 10  
Month to date heating degree days 118 154  
Since 1 July heating degree days 7510 7228  
Cooling Degree Days 0 0  
Month to date cooling degree days 6 0  
Year to date cooling degree days 6 2  
Growing Degree Days 10 (Base 50)    
Moisture  
Dew Point 44 °F    
Average Humidity 63    
Maximum Humidity 77    
Minimum Humidity 48    
Precipitation  
Precipitation 0.01 in 0.10 in 1.28 in (2002)
Month to date precipitation 0.81 1.33  
Year to date precipitation 10.63 10.19  
Snow  
Snow 0.00 in 0.00 in 0.00 in (2002)
Month to date snowfall 0.0 0.0  
Since 1 July snowfall 86.5 81.2  
Snow Depth 0.00 in    
Sea Level Pressure  
Sea Level Pressure 30.18 in    
Wind  
Wind Speed 8 mph (SSW)    
Max Wind Speed 16 mph    
Max Gust Speed 19 mph    
Visibility 10 miles    
Events Rain    
T = Trace of Precipitation, MM = Missing Value Source: NWS Daily Summary

Daily Weather History Graph

Daily Weather History Graph

Search for Another Location

Airport or City:

Trip Planner

Search our weather history database for the weather conditions in past years. The results will help you decide how hot, cold, wet, or windy it might be!

Date:

Astronomy

May. 13, 2014 Rise Set
Actual Time 5:27 AM EDT 8:11 PM EDT
Civil Twilight 4:53 AM EDT 8:44 PM EDT
Nautical Twilight 4:11 AM EDT 9:27 PM EDT
Astronomical Twilight 3:22 AM EDT 10:16 PM EDT
Moon 7:06 PM EDT (5/13) 4:46 AM EDT (5/13)
Length of Visible Light 15h 50m
Length of Day
14h 43m
Waxing Gibbous, 98% of the Moon is Illuminated
May 13
Waxing Gibbous
May 14
Full
May 21
Last Quarter
May 28
New
Jun 5
First Quarter

Hourly Weather History & Observations

Time (EDT) Temp. Dew Point Humidity Pressure Visibility Wind Dir Wind Speed Gust Speed Precip Events Conditions
12:54 AM 57.0 °F 41.0 °F 55% 30.12 in 10.0 mi West 5.8 mph - N/A   Overcast
1:54 AM 55.4 °F 39.2 °F 54% 30.13 in 10.0 mi WNW 6.9 mph - N/A   Overcast
2:54 AM 55.0 °F 39.9 °F 57% 30.14 in 10.0 mi NW 5.8 mph - N/A   Overcast
3:54 AM 54.0 °F 41.0 °F 62% 30.15 in 10.0 mi WNW 5.8 mph - N/A   Overcast
4:54 AM 53.1 °F 41.0 °F 64% 30.17 in 10.0 mi WNW 6.9 mph - N/A   Overcast
5:54 AM 52.0 °F 42.1 °F 69% 30.18 in 10.0 mi NNW 6.9 mph - N/A   Overcast
6:54 AM 51.1 °F 44.1 °F 77% 30.19 in 10.0 mi NNW 5.8 mph - 0.01 in   Overcast
7:54 AM 51.1 °F 44.1 °F 77% 30.19 in 10.0 mi WNW 3.5 mph - N/A   Overcast
8:54 AM 51.8 °F 42.8 °F 71% 30.21 in 10.0 mi NW 3.5 mph - N/A   Overcast
9:54 AM 53.1 °F 43.0 °F 69% 30.22 in 10.0 mi Calm Calm - N/A   Overcast
10:54 AM 53.1 °F 44.1 °F 71% 30.24 in 10.0 mi SSW 4.6 mph - N/A   Overcast
11:54 AM 55.4 °F 44.6 °F 67% 30.23 in 10.0 mi Variable 3.5 mph - N/A   Overcast
12:54 PM 59.0 °F 44.1 °F 58% 30.22 in 10.0 mi SSW 10.4 mph - N/A   Overcast
1:54 PM 61.0 °F 46.0 °F 58% 30.22 in 10.0 mi SSW 6.9 mph - N/A   Overcast
2:54 PM 64.9 °F 46.9 °F 52% 30.20 in 10.0 mi Variable 6.9 mph - N/A   Mostly Cloudy
3:54 PM 66.9 °F 46.9 °F 49% 30.19 in 10.0 mi South 13.8 mph - N/A   Scattered Clouds
4:54 PM 66.9 °F 46.0 °F 47% 30.18 in 10.0 mi ESE 9.2 mph - N/A   Scattered Clouds
5:54 PM 64.9 °F 46.9 °F 52% 30.17 in 10.0 mi SSE 11.5 mph - N/A   Mostly Cloudy
6:54 PM 63.0 °F 46.0 °F 54% 30.17 in 10.0 mi SE 11.5 mph - N/A   Mostly Cloudy
7:54 PM 61.0 °F 46.0 °F 58% 30.17 in 10.0 mi ESE 11.5 mph - N/A   Overcast
8:54 PM 59.0 °F 46.0 °F 62% 30.18 in 10.0 mi ESE 11.5 mph - N/A   Clear
9:54 PM 57.0 °F 46.9 °F 69% 30.18 in 10.0 mi ESE 10.4 mph - 0.00 in Rain Light Rain
10:54 PM 57.0 °F 46.9 °F 69% 30.16 in 10.0 mi SE 10.4 mph - 0.00 in Rain Light Rain
11:54 PM 57.0 °F 46.9 °F 69% 30.15 in 10.0 mi SSE 4.6 mph - 0.00 in   Mostly Cloudy